This demonstration page uses our WeatherBlox Daily Observations layout. Learn more.

Left ArrowRight Arrow

41.12389, -100.76542

Hourly Observations for March 8, 2019

Temp ( °F °C ) Dew Point ( °F °C ) Humidity (%) Winds ( mph kmh ) Pressure ( in mb ) Visibility ( mi km ) Precip ( " mm )
12:53 am 00:53 Cloudy with Mist and Fog 26 -3.3 24 -4.4 92 92 SSW 10 17 30.01 1016 4 6 0.00 0.00
1:42 am 01:42 Cloudy with Mist and Fog 26 -3.3 25 -3.9 96 96 SW 8 13 30.05 1018 4 6 0.00 0.00
1:53 am 01:53 Cloudy with Mist and Fog 26 -3.3 25 -3.9 96 96 SSW 8 13 29.99 1016 4 6 0.00 0.00
2:53 am 02:53 Cloudy with Mist and Fog 26 -3.3 24 -4.4 92 92 SW 9 15 29.99 1016 5 8 0.00 0.00
3:53 am 03:53 Cloudy with Mist and Fog 26 -3.3 24 -4.4 92 92 SW 8 13 29.96 1014 4 6 0.00 0.00
4:53 am 04:53 Cloudy with Mist and Fog 26 -3.3 24 -4.4 92 92 SW 8 13 29.96 1015 3 5 0.00 0.00
5:00 am 05:00 Cloudy with Mist and Fog 26 -3.3 24 -4.4 92 92 SW 8 13 30.01 1016 2 3 0.00 0.00
5:19 am 05:19 Cloudy with Mist and Fog 26 -3.3 25 -3.9 96 96 SW 7 11 30.01 1016 2 2 0.00 0.00
5:34 am 05:34 Cloudy with Mist and Fog 25 -3.9 24 -4.4 96 96 SW 7 11 30.02 1017 3 5 0.00 0.00
5:53 am 05:53 Cloudy with Mist and Fog 25 -3.9 23 -5 92 92 SW 8 13 29.97 1015 3 5 0.00 0.00
6:17 am 06:17 Cloudy with Mist and Fog 25 -3.9 24 -4.4 96 96 SSW 6 9 30.03 1017 2 3 0.00 0.00
6:31 am 06:31 Cloudy with Mist and Fog 25 -3.9 23 -5 92 92 SW 5 7 30.03 1017 3 4 0.00 0.00
6:38 am 06:38 Cloudy with Mist and Fog 24 -4.4 23 -5 96 96 SW 5 7 30.02 1017 3 5 0.00 0.00
6:51 am 06:51 Cloudy with Mist and Fog 25 -4 23 -5 93 93 Calm 30.01 1016 2 3 0.00 0.00
6:53 am 06:53 Cloudy with Mist and Fog 24 -4.4 23 -5 96 96 Calm 29.95 1014 1 2 0.00 0.00
7:02 am 07:02 Cloudy with Mist and Fog 24 -4.4 23 -5 96 96 S 5 7 30.01 1016 1 1 0.00 0.00
7:19 am 07:19 Mostly Cloudy with Freezing Fog 24 -4.4 23 -5 96 96 S 7 11 30.02 1017 0 0 0.00 0.00
7:53 am 07:53 Mostly Cloudy with Freezing Fog 24 -4.4 23 -5 96 96 S 7 11 29.95 1014 0 0 0.00 0.00
8:53 am 08:53 Mostly Cloudy with Freezing Fog 25 -3.9 23 -5 92 92 S 7 11 29.96 1015 0 0 0.00 0.00
9:01 am 09:01 Cloudy with Mist and Fog 25 -3.9 23 -5 92 92 SSW 7 11 30.03 1017 1 1 0.00 0.00
9:16 am 09:16 Cloudy with Mist and Fog 25 -3.9 23 -5 92 92 SW 8 13 30.03 1017 2 2 0.00 0.00
9:20 am 09:20 Cloudy with Mist and Fog 25 -3.9 23 -5 92 92 SSW 7 11 30.03 1017 3 5 0.00 0.00
9:28 am 09:28 Cloudy with Mist and Fog 25 -3.9 23 -5 92 92 SSW 10 17 30.03 1017 2 3 0.00 0.00
9:35 am 09:35 Cloudy with Mist and Fog 25 -3.9 23 -5 92 92 SSW 7 11 30.03 1017 1 2 0.00 0.00
9:53 am 09:53 Cloudy with Mist and Fog 26 -3.3 24 -4.4 92 92 S 8 13 29.96 1015 1 2 0.00 0.00
10:08 am 10:08 Cloudy with Mist and Fog 26 -3.3 24 -4.4 92 92 Calm 30.01 1016 1 1 0.00 0.00
10:20 am 10:20 Cloudy with Mist and Fog 26 -3.3 25 -3.9 96 96 Calm 30.00 1016 1 2 0.00 0.00
10:40 am 10:40 Cloudy with Mist and Fog 27 -2.8 25 -3.9 92 92 Calm 30.00 1016 2 3 0.00 0.00
10:53 am 10:53 Cloudy with Mist and Fog 28 -2.2 26 -3.3 92 92 S 3 6 29.93 1014 4 6 0.00 0.00
11:45 am 11:45 Cloudy with Mist and Fog 30 -1.1 27 -2.8 88 88 E 6 9 29.97 1015 5 8 0.00 0.00
11:53 am 11:53 Cloudy with Mist and Fog 30 -1.1 27 -2.8 88 88 ESE 3 6 29.92 1013 5 8 0.00 0.00
12:53 pm 12:53 Mostly Cloudy 32 0 28 -2.2 85 85 ESE 9 15 29.88 1012 9 14 0.00 0.00
1:01 pm 13:01 Partly Cloudy 32 0 28 -2.2 85 85 ESE 10 17 29.91 1013 9 14 0.00 0.00
1:53 pm 13:53 Sunny 35 1.7 29 -1.7 78 78 ESE 15 24 29.82 1010 10 16 0.00 0.00
2:53 pm 14:53 Sunny 33 0.6 28 -2.2 82 82 ESE 18 30 29.77 1008 8 13 0.00 0.00
3:53 pm 15:53 Sunny 35 1.7 29 -1.7 78 78 SE 14 22 29.75 1008 9 14 0.00 0.00
4:53 pm 16:53 Sunny 36 2.2 29 -1.7 76 76 SE 13 20 29.74 1007 10 16 0.00 0.00
5:53 pm 17:53 Sunny with Mist and Fog 33 0.6 29 -1.7 85 85 SE 16 26 29.71 1006 6 10 0.00 0.00
6:26 pm 18:26 Mostly Cloudy with Mist and Fog 32 0 30 -1.1 92 92 SE 18 30 29.73 1007 4 6 0.00 0.00
6:53 pm 18:53 Cloudy with Mist and Fog 32 0 30 -1.1 92 92 SE 15 24 29.69 1005 5 8 0.00 0.00
7:34 pm 19:34 Cloudy with Mist and Fog 32 0 30 -1.1 92 92 SE 17 28 29.70 1006 3 5 0.00 0.00
7:50 pm 19:50 Cloudy with Mist and Fog 32 0 30 -1 93 93 SSE 18 30 29.70 1006 2 3 0.00 0.00
7:53 pm 19:53 Cloudy with Mist and Fog 32 0 30 -1.1 92 92 SSE 16 26 29.67 1005 2 3 0.00 0.00
7:57 pm 19:57 Cloudy with Mist and Fog 31 -0.6 30 -1.1 96 96 SSE 18 30 29.71 1006 1 2 0.00 0.00
8:07 pm 20:07 Cloudy with Freezing Fog 31 -0.6 30 -1.1 96 96 SSE 20 31 29.70 1006 1 1 0.00 0.00
8:50 pm 20:50 Cloudy with Mist and Fog 30 -1 30 -1 100 100 SSE 22 35 29.69 1006 2 2 0.00 0.00
8:53 pm 20:53 Cloudy with Mist and Fog 31 -0.6 30 -1.1 96 96 SSE 18 30 29.65 1004 2 3 0.00 0.00
9:23 pm 21:23 Cloudy with Mist and Fog 31 -0.6 30 -1.1 96 96 SSE 18 30 29.68 1005 2 3 0.00 0.00
9:53 pm 21:53 Cloudy with Mist and Fog 31 -0.6 31 -0.6 100 100 SSE 17 28 29.62 1003 2 3 0.00 0.00
10:05 pm 22:05 Cloudy with Mist and Fog 31 -0.6 30 -1.1 96 96 SE 20 31 29.65 1004 1 2 0.00 0.00
10:53 pm 22:53 Cloudy with Mist and Fog 32 0 31 -0.6 96 96 SE 23 37 29.56 1001 2 2 0.00 0.00
11:30 pm 23:30 Cloudy with Mist and Fog 32 0 31 -0.6 96 96 SE 21 33 29.59 1002 2 3 0.00 0.00
11:53 pm 23:53 Cloudy with Mist and Fog 32 0 31 -0.6 96 96 SE 17 28 29.54 1001 2 3 0.00 0.00

Powered by AerisWeather